• Processing (Info)

  • MPEC 2014-K43 : 2014 KF22

    The following Minor Planet Electronic Circular may be linked-to from your own Web pages, but must not otherwise be redistributed electronically.

    A form allowing access to any MPEC is at the bottom of this page.


    Read MPEC 2014-K42 Read MPEC 2014-K44


    M.P.E.C. 2014-K43                                Issued 2014 May 25, 14:11 UT
    
         The Minor Planet Electronic Circulars contain information on unusual
             minor planets and routine data on comets.  They are published
       on behalf of Commission 20 of the International Astronomical Union by the
              Minor Planet Center, Smithsonian Astrophysical Observatory,
                              Cambridge, MA 02138, U.S.A.
    
                 Prepared using the Tamkin Foundation Computer Network
    
                                  MPC@CFA.HARVARD.EDU
                URL https://www.minorplanetcenter.net/    ISSN 1523-6714
    
                                       2014 KF22
    
    Observations:
         K14K22F* C2014 05 24.22238 14 35 57.35 +05 22 34.2          20.1 VqEK043G96
         K14K22F  C2014 05 24.23009 14 35 51.62 +05 23 24.5          19.8 VqEK043G96
         K14K22F  C2014 05 24.23779 14 35 45.89 +05 24 14.7          20.0 VqEK043G96
         K14K22F  C2014 05 24.24550 14 35 40.14 +05 25 04.2          20.1 VqEK043G96
         K14K22F  C2014 05 24.26538 14 35 25.25 +05 27 14.3          19.4 VqEK043G96
         K14K22F  C2014 05 24.27406 14 35 18.74 +05 28 11.5          19.8 VqEK043G96
         K14K22F  C2014 05 24.28274 14 35 12.18 +05 29 08.4          20.0 VqEK043G96
         K14K22F  C2014 05 24.29140 14 35 05.65 +05 30 05.3          19.7 VqEK043G96
         K14K22F KC2014 05 24.29294514 34 59.19 +05 29 37.4          20.2 VqEK043H21
         K14K22F KC2014 05 24.29667714 34 56.46 +05 30 01.7          20.3 VqEK043H21
         K14K22F KC2014 05 24.30041114 34 53.75 +05 30 26.4          20.3 VqEK043H21
         K14K22F KC2014 05 24.30404414 34 51.12 +05 30 50.3          20.3 VqEK043H21
         K14K22F  C2014 05 24.33130 14 34 35.39 +05 34 31.0          19.9 VqEK043G96
         K14K22F  C2014 05 24.34040 14 34 28.52 +05 35 31.0          20.1 VqEK043G96
         K14K22F  C2014 05 24.34952 14 34 21.60 +05 36 32.3          20.6 VqEK043G96
         K14K22F  C2014 05 24.35862 14 34 14.71 +05 37 33.2          19.7 VqEK043G96
         K14K22F  C2014 05 24.85630 14 28 19.25 +06 39 29.4          19.8 VoEK043033
         K14K22F  C2014 05 24.86864 14 28 07.61 +06 41 16.0          19.9 VoEK043033
         K14K22F KC2014 05 24.88811 14 27 50.07 +06 44 15.4          20.0 VtEK043198
         K14K22F KC2014 05 24.89185 14 27 46.48 +06 44 47.7          19.9 VtEK043198
         K14K22F KC2014 05 24.89240 14 27 45.96 +06 44 52.8          20.0 VtEK043198
         K14K22F KC2014 05 24.89614 14 27 42.36 +06 45 25.2          20.0 VtEK043198
         K14K22F KC2014 05 24.89930 14 27 39.31 +06 45 52.4          19.9 VtEK043198
         K14K22F KC2014 05 24.90303 14 27 35.75 +06 46 24.6          19.8 VtEK043198
         K14K22F  C2014 05 24.91255 14 27 25.83 +06 47 36.2          19.6 VoEK043033
         K14K22F  C2014 05 24.92489 14 27 13.83 +06 49 25.1          19.6 VoEK043033
         K14K22F KC2014 05 24.94003 14 26 59.40 +06 52 04.9          19.9 RqEK043203
         K14K22F KC2014 05 24.96538 14 26 34.35 +06 55 49.8          19.9 RqEK043203
         K14K22F  C2014 05 25.19961 14 23 04.90 +07 34 21.6          19.8 VqEK043G96
         K14K22F  C2014 05 25.20708 14 22 56.32 +07 35 38.1          19.8 VqEK043G96
         K14K22F  C2014 05 25.21455 14 22 47.72 +07 36 54.7          19.7 VqEK043G96
         K14K22F  C2014 05 25.22201 14 22 39.09 +07 38 10.8          19.7 VqEK043G96
    
    Observer details:
    033 Karl Schwarzschild Observatory, Tautenburg.  Observer B. Stecklum.  1.34-m
        f/4 Schmidt + CCD.
    198 Wildberg.  Observer R. Apitzsch.  0.35-m f/3.1 reflector + CCD.
    203 GiaGa Observatory.  Observers S. Foglia, G. Galli.  Measurer G. Galli.
        0.28-m f/6.8 Schmidt-Cassegrain + CCD.
    G96 Mt. Lemmon Survey.  Observer R. A. Kowalski.  Measurers E. J. Christensen,
        A. R. Gibbs, A. D. Grauer, R. E. Hill, J. A. Johnson, R. A. Kowalski,
        S. M. Larson, R. J. Sanders, F. C. Shelly.  1.5-m reflector + CCD.
    H21 Astronomical Research Observatory, Westfield.  Observer R. Holmes.
        Measurers T. Vorobjov, L. Buzzi, S. Foglia, T. Linder.  0.61-m f/4.0
        astrograph + CCD.
    
    Orbital elements:
    2014 KF22                                                Earth MOID = 0.0028 AU
    Epoch 2014 May 23.0 TT = JDT 2456800.5                  MPC
    M 332.37655              (2000.0)            P               Q
    n   0.54284769     Peri.  237.76510     +0.58360756     +0.80813235
    a   1.4882780      Node    68.14356     -0.71322473     +0.55694827
    e   0.4187978      Incl.    4.91540     -0.38821734     +0.19165261
    P   1.82           H   26.4           G   0.15           U   6
    Residuals in seconds of arc
    140524 G96  0.2+  0.1+    140524 H21  0.1+  0.1-    140524 198  0.5-  0.2+
    140524 G96  0.2-  0.3+    140524 G96  0.4-  0.6+    140524 198  0.0   0.1-
    140524 G96  0.4-  0.5+    140524 G96  0.0   0.2-    140524 033  0.8+  0.5-
    140524 G96  0.5-  0.3-    140524 G96  0.3-  0.1+    140524 033  0.5-  0.2+
    140524 G96  0.4-  0.1-    140524 G96  0.5-  0.1-    140524 203  1.4-  0.1-
    140524 G96  0.0   0.1+    140524 033  0.9+  0.4-    140524 203  0.8-  0.2-
    140524 G96  0.2-  0.1-    140524 033  0.1-  0.2+    140525 G96  0.3-  0.4-
    140524 G96  0.1+  0.3-    140524 198  0.1-  0.6+    140525 G96  0.5-  0.1-
    140524 H21  0.0   0.3-    140524 198  0.2-  0.4+    140525 G96  0.4-  0.1+
    140524 H21  0.2-  0.4-    140524 198  0.1-  0.7+    140525 G96  0.3-  0.3-
    140524 H21  0.1-  0.2-    140524 198  0.3-  0.6+
    
    Ephemeris:
    2014 KF22                a,e,i = 1.49, 0.42, 5                   q = 0.8650
    Date    TT    R. A. (2000) Decl.     Delta      r     Elong.  Phase     V
    2014 04 25    15 16 29.6 -03 34 44   0.2239  1.2197   160.8    15.7    24.4
    ...
    2014 05 10    15 12 36.6 -01 30 05   0.1175  1.1230   163.9    14.4    22.8
    ...
    2014 05 18    15 03 39.8 +00 27 18   0.06611 1.0731   158.4    20.3    21.7
    ...
    2014 05 24    14 38 08.1 +05 01 55   0.02919 1.0372   147.1    32.1    20.2
    2014 05 25    14 26 10.8 +07 04 54   0.02323 1.0314   142.8    36.4    19.8
    2014 05 26    14 05 57.9 +10 26 47   0.01744 1.0256   136.2    43.2    19.3
    ...
    2014 06 01    04 22 15.4 +12 38 34   0.02203 0.9923     9.8   170.0
    ...
    2014 06 09    03 40 34.3 +05 54 19   0.07122 0.9521    27.0   151.1    29.2
    ...
    2014 06 24    03 37 30.6 +05 33 15   0.1699  0.8946    40.7   132.1    28.2
    
    A. U. Tomatic                (C) Copyright 2014 MPC           M.P.E.C. 2014-K43
    

    Read MPEC 2014-K42 Read MPEC 2014-K44


    MPEC number:

    Enter an MPEC number in one of the following forms:

    • 1997-B01 (the full form)
    • J97B01 (the packed version of the full form)
    • B01 (the abbreviated form)